Content
SEND FEEDBACK

Daily
Averages
Monthly
Summary
United States of America

MERIZO, GUAM


Home > North America > United States > Guam
Elevation: 3 meters     Latitude: 13 14N     Longitude: 144 39E

WEATHER
 
SELECT A DAY
Number of Records: 341,964;   Date Range: 1/1/95 - 7/26/14
 
SHARE

PRINT THIS DATA

[ ← Previous Day ]
WEATHER ALMANAC - 17 DECEMBER, 2013
[ Next Day → ]
[ °F ]   °C
Weather ElementAverageHighLow
Temperature26.4 °C28.4 °C (9:58 am)25.8 °C (4:58 am)
Dewpoint24.4 °C26.2 °C (11:58 am) (7:00 pm)
Humidity91.4 %100 % (10:50 am)82 % (9:58 am)
Barometer1010.2 hPa1012.2 hPa (8:28 am)1007.8 hPa (2:58 am)
Wind Speed26.4 km/h35.2 km/h (10:32 am)
Wind Gust44.4 km/h (10:42 am)
Weather ElementAverage
Visibility13.8 km
Wind DirectionENE (55.6 °)

Weather ElementTotal
Precipitation4.32 mm
Cooling Degree Days8.8 (Base 18.3)
Growing Degree Days17.1 (Base 10)
Averaged from 101 records on 17 December, 2013
WEATHER CONDITIONS BREAKOUT
WIND DIRECTION BREAKOUT
WEATHER BY HOUR - 17 DECEMBER, 2013
[ °F ]   °C
Local TimeTemperatureDewpointHumidityBarometerVisibilityWind DirectionWind SpeedGust SpeedPrecipitationEventsConditions
12:58 AM26.3 °C24.2 °C88 %1009.5 hPa16.1 kmENE (60°)22.2 km/hMostly Cloudy
1:08 AM26 °C24 °C89 %1010.2 hPa16.1 kmENE (60°)24.1 km/hMostly Cloudy
1:13 AM26 °C24 °C89 %1010.2 hPa16.1 kmENE (60°)22.2 km/hScattered Clouds
1:38 AM26 °C24 °C89 %1009.8 hPa16.1 kmNE (50°)25.9 km/hMostly Cloudy
1:43 AM26 °C23 °C83 %1009.5 hPa16.1 kmENE (60°)20.4 km/hMostly Cloudy
1:58 AM26 °C23.2 °C84 %1008.5 hPa16.1 kmENE (60°)18.5 km/hScattered Clouds
2:18 AM26 °C23 °C83 %1009.5 hPa16.1 kmENE (60°)24.1 km/hMostly Cloudy
2:23 AM26 °C24 °C89 %1009.1 hPa16.1 kmENE (60°)25.9 km/hScattered Clouds
2:58 AM26.1 °C23.7 °C87 %1007.8 hPa16.1 kmENE (60°)24.1 km/hPartly Cloudy
3:58 AM26 °C24 °C89 %1008.1 hPa16.1 kmNE (50°)25.9 km/hMostly Cloudy
4:03 AM26 °C24 °C89 %1009.1 hPa16.1 kmENE (60°)24.1 km/hMostly Cloudy
4:08 AM26 °C24 °C89 %1009.1 hPa16.1 kmNE (50°)25.9 km/hMostly Cloudy
4:18 AM26 °C24 °C89 %1009.5 hPa16.1 kmENE (60°)24.1 km/hScattered Clouds
4:58 AM25.8 °C23.4 °C87 %1008.5 hPa16.1 kmENE (60°)22.2 km/hPartly Cloudy
5:28 AM26 °C24 °C89 %1009.8 hPa16.1 kmENE (60°)22.2 km/hScattered Clouds
5:33 AM26 °C24 °C89 %1009.8 hPa16.1 kmENE (60°)22.2 km/hMostly Cloudy
5:43 AM26 °C24 °C89 %1009.8 hPa16.1 kmENE (60°)22.2 km/hScattered Clouds
5:58 AM25.9 °C24 °C89 %1009.5 hPa16.1 kmENE (60°)20.4 km/hScattered Clouds
6:51 AM26 °C24 °C89 %1010.5 hPa9.7 kmENE (60°)22.2 km/hRainLight Rain
6:56 AM26 °C25 °C94 %1010.5 hPa8 kmENE (60°)20.4 km/hRainLight Rain
6:58 AM25.9 °C24.8 °C94 %1009.8 hPa8 kmENE (60°)20.4 km/h0 mmRainLight Rain
7:03 AM26 °C25 °C94 %1010.8 hPa16.1 kmENE (60°)20.4 km/hRainLight Rain
7:04 AM26 °C25 °C94 %1010.8 hPa16.1 kmENE (60°)20.4 km/hScattered Clouds
7:34 AM26 °C25 °C94 %1011.2 hPa16.1 kmENE (60°)20.4 km/hMostly Cloudy
7:54 AM26 °C25 °C94 %1011.5 hPa16.1 kmENE (60°)22.2 km/hMostly Cloudy
7:58 AM26.2 °C24.7 °C91 %1010.5 hPa16.1 kmENE (60°)20.4 km/h0 mmScattered Clouds
8:23 AM27 °C25 °C89 %1011.9 hPa16.1 kmENE (70°)24.1 km/hMostly Cloudy
8:28 AM27 °C24 °C84 %1012.2 hPa16.1 kmENE (70°)29.6 km/hScattered Clouds
8:58 AM27.5 °C24.7 °C85 %1011.2 hPa16.1 kmENE (70°)27.8 km/hScattered Clouds
9:08 AM28 °C25 °C84 %1011.9 hPa16.1 kmENE (60°)25.9 km/hMostly Cloudy
9:13 AM28 °C25 °C84 %1011.9 hPa16.1 kmENE (60°)25.9 km/hMostly Cloudy
9:23 AM28 °C25 °C84 %1011.9 hPa16.1 kmENE (70°)25.9 km/hMostly Cloudy
9:33 AM28 °C25 °C84 %1011.9 hPa16.1 kmENE (70°)29.6 km/h38.9 km/hMostly Cloudy
9:38 AM28 °C25 °C84 %1011.9 hPa16.1 kmENE (60°)25.9 km/h38.9 km/hScattered Clouds
9:58 AM28.4 °C25.1 °C82 %1011.2 hPa16.1 kmENE (70°)25.9 km/hScattered Clouds
10:21 AM27 °C25 °C89 %1011.5 hPa9.7 kmENE (70°)27.8 km/h38.9 km/hRainLight Rain
10:26 AM27 °C26 °C94 %1011.5 hPa6.4 kmENE (70°)25.9 km/h38.9 km/hRainLight Rain
10:31 AM27 °C26 °C94 %1011.5 hPa8 kmENE (60°)31.5 km/hRainLight Rain
10:32 AM27 °C26 °C94 %1011.5 hPa11.3 kmENE (60°)35.2 km/hMostly Cloudy
10:42 AM27 °C25 °C89 %1011.5 hPa14.5 kmNE (50°)29.6 km/h44.4 km/hMostly Cloudy
10:45 AM26 °C25 °C94 %1011.5 hPa4.8 kmNE (50°)22.2 km/h44.4 km/hRainLight Rain
10:50 AM26 °C26 °C100 %1011.5 hPa4 kmENE (60°)27.8 km/h33.3 km/hRainLight Rain
10:55 AM26 °C26 °C100 %1011.5 hPa8 kmNE (50°)31.5 km/hRainLight Rain
10:56 AM26 °C26 °C100 %1011.5 hPa9.7 kmNE (50°)29.6 km/hMostly Cloudy
10:58 AM26 °C26 °C100 %1010.5 hPa9.7 kmNE (50°)24.1 km/h0.25 mmMostly Cloudy
10:59 AM26 °C26 °C100 %1011.5 hPa8 kmNE (50°)20.4 km/hRainLight Rain
11:04 AM26 °C26 °C100 %1011.5 hPa8 kmENE (60°)18.5 km/hLight Drizzle
11:09 AM26 °C26 °C100 %1011.5 hPa4 kmENE (60°)18.5 km/h31.5 km/hRainRain
11:14 AM26 °C26 °C100 %1011.2 hPa2.9 kmNE (50°)22.2 km/hRainHeavy Rain
11:19 AM26 °C26 °C100 %1011.2 hPa4.8 kmENE (60°)29.6 km/h40.7 km/hRainLight Rain
11:21 AM26 °C26 °C100 %1011.2 hPa14.5 kmNE (50°)29.6 km/h40.7 km/hMostly Cloudy
11:36 AM27 °C26 °C94 %1011.2 hPa16.1 kmENE (60°)31.5 km/hScattered Clouds
11:58 AM26.9 °C26.2 °C96 %1009.8 hPa16.1 kmNE (50°)27.8 km/h1.27 mmScattered Clouds
12:08 PM27 °C26 °C94 %1010.8 hPa16.1 kmNE (50°)25.9 km/h40.7 km/hMostly Cloudy
12:12 PM26 °C26 °C100 %1010.5 hPa9.7 kmNE (50°)22.2 km/h40.7 km/hRainLight Rain
12:17 PM26 °C26 °C100 %1010.5 hPa1.9 kmNE (40°)14.8 km/hRainHeavy Rain
12:27 PM26 °C26 °C100 %1010.2 hPa11.3 kmNE (50°)33.3 km/h40.7 km/hRainLight Rain
12:29 PM26 °C26 °C100 %1010.2 hPa16.1 kmNE (50°)31.5 km/h40.7 km/hOvercast
12:34 PM26 °C26 °C100 %1010.2 hPa16.1 kmNE (40°)29.6 km/h40.7 km/hOvercast
12:39 PM27 °C-17.8 °C1010.2 hPa16.1 kmNE (50°)33.3 km/h40.7 km/hOvercast
12:58 PM26.8 °C26.2 °C96 %1008.8 hPa16.1 kmNE (50°)27.8 km/h2.03 mmMostly Cloudy
1:13 PM27 °C26 °C94 %1009.5 hPa16.1 kmNE (50°)25.9 km/h40.7 km/hOvercast
1:53 PM27 °C26 °C94 %1008.8 hPa16.1 kmNE (50°)20.4 km/hMostly Cloudy
1:58 PM27 °C25 °C89 %1007.8 hPa16.1 kmNE (50°)24.1 km/hMostly Cloudy
2:28 PM27 °C26 °C94 %1008.8 hPa12.9 kmNE (50°)25.9 km/hLight Drizzle
2:33 PM27 °C25 °C89 %1008.8 hPa8 kmENE (70°)22.2 km/hLight Drizzle
2:38 PM26 °C26 °C100 %1008.8 hPa3.2 kmNE (50°)18.5 km/hRainLight Rain
2:43 PM26 °C26 °C100 %1008.8 hPa2.4 kmENE (70°)20.4 km/hRainLight Rain
2:48 PM26 °C26 °C100 %1008.8 hPa4 kmENE (60°)29.6 km/h37 km/hRainLight Rain
2:53 PM26 °C26 °C100 %1008.8 hPa9.7 kmNE (50°)33.3 km/h44.4 km/hRainLight Rain
2:58 PM26.1 °C25.3 °C95 %1007.8 hPa16.1 kmNE (50°)31.5 km/h44.4 km/h0.76 mmRainLight Rain
2:59 PM26 °C25 °C94 %1008.8 hPa16.1 kmNE (50°)33.3 km/h44.4 km/hMostly Cloudy
3:24 PM27 °C26 °C94 %1008.8 hPa16.1 kmNE (50°)31.5 km/h38.9 km/hMostly Cloudy
3:39 PM27 °C25 °C89 %1008.8 hPa16.1 kmENE (60°)27.8 km/hScattered Clouds
3:44 PM27 °C25 °C89 %1008.8 hPa16.1 kmENE (60°)25.9 km/hMostly Cloudy
3:49 PM27 °C25 °C89 %1008.5 hPa16.1 kmENE (60°)27.8 km/hScattered Clouds
3:54 PM27 °C25 °C89 %1008.8 hPa16.1 kmNE (50°)29.6 km/hMostly Cloudy
3:58 PM26.9 °C25.3 °C91 %1007.8 hPa16.1 kmNE (50°)31.5 km/h0 mmMostly Cloudy
4:03 PM27 °C25 °C89 %1008.8 hPa16.1 kmNE (50°)31.5 km/hMostly Cloudy
4:08 PM27 °C25 °C89 %1008.8 hPa16.1 kmNE (50°)29.6 km/h42.6 km/hMostly Cloudy
4:48 PM27 °C25 °C89 %1009.1 hPa16.1 kmNE (50°)29.6 km/hMostly Cloudy
4:58 PM26.6 °C24.7 °C89 %1008.1 hPa16.1 kmNE (50°)27.8 km/hMostly Cloudy
5:13 PM27 °C25 °C89 %1009.1 hPa16.1 kmNE (50°)25.9 km/hMostly Cloudy
5:53 PM26 °C24 °C89 %1009.8 hPa16.1 kmNE (50°)31.5 km/hOvercast
5:58 PM26.4 °C24.4 °C89 %1008.8 hPa16.1 kmNE (50°)29.6 km/hOvercast
6:03 PM26 °C24 °C89 %1009.8 hPa16.1 kmENE (60°)31.5 km/hOvercast
6:13 PM26 °C24 °C89 %1009.8 hPa16.1 kmNE (50°)25.9 km/hMostly Cloudy
6:18 PM26 °C24 °C89 %1009.8 hPa16.1 kmNE (50°)31.5 km/hMostly Cloudy
6:23 PM26 °C24 °C89 %1009.8 hPa16.1 kmNE (50°)31.5 km/hMostly Cloudy
6:33 PM26 °C24 °C89 %1010.2 hPa16.1 kmNE (50°)29.6 km/hMostly Cloudy
6:38 PM26 °C24 °C89 %1010.2 hPa16.1 kmNE (50°)33.3 km/hMostly Cloudy
6:43 PM26 °C25 °C94 %1010.2 hPa16.1 kmNE (50°)29.6 km/hMostly Cloudy
6:58 PM26.4 °C24.6 °C90 %1009.5 hPa16.1 kmNE (50°)29.6 km/hMostly Cloudy
7:28 PM26 °C24 °C89 %1010.5 hPa16.1 kmNE (50°)31.5 km/hMostly Cloudy
7:53 PM26 °C24 °C89 %1010.5 hPa16.1 kmENE (60°)29.6 km/hMostly Cloudy
7:58 PM26 °C24 °C89 %1009.8 hPa16.1 kmENE (60°)31.5 km/hMostly Cloudy
8:58 PM26.1 °C24 °C88 %1010.2 hPa16.1 kmNE (50°)27.8 km/hPartly Cloudy
9:58 PM26 °C23.7 °C87 %1009.8 hPa16.1 kmNE (40°)25.9 km/h38.9 km/hClear
10:58 PM26 °C23.2 °C84 %1009.8 hPa16.1 kmNE (50°)27.8 km/h38.9 km/hPartly Cloudy
11:08 PM26 °C23 °C83 %1010.8 hPa16.1 kmNE (50°)29.6 km/hMostly Cloudy
11:58 PM26 °C23.3 °C85 %1009.5 hPa16.1 kmNE (50°)27.8 km/hOvercast
Hourly data recorded from PGUA, located 0 kilometers away from Merizo, Guam







STORIES FROM OUR PARTNERS